Погода Торгай

Погода Торгай : погода сейчас, прогноз погоды и архив. Всё, что Вы хотите узнать о погоде Торгай!

Хотите узнать прогноз погоды Торгай? Тогда Вам сюда: Погода Торгай

Поиск расширенной информации на нашем сайте:

Полезная информация:

Другие новости

Новости СМИ2

Главная страница сайта

Новости сайта

03.07.2017

Напоминаем, что на нашем специализированном сайте Метеоцентр.Азия вы можете получить высокодетализированные автоматические прогнозы погоды по пунктам России, СНГ и мира в авиационном формате (включающие направление и скорость ветра, видимость, явления погоды, количество и форму облачности, нижнюю и верхнюю границу облачности).

Рекомендуем:

Погода Торгай - сегодня

Время (UTC), дата Ветер
(°,м/с) 
Видим.   Явления Облачность Т
(°С)
Тd
(°С)
f(%) Тe
(°С)
Pmin
(гПа)
dP
(гПа)
Po
(мм)
O2
(г/м3)
Тmin Tmax R s Состояние
почвы
09 24.05.19 200 (Ю) 10 км    9/0 верхняя 
[Ci]
+24.7 +7.3 33 +25    -2.4  746  274           
12 24.05.19 180 (Ю) 10 км    8/0 средняя 
[Ac lent]
+25.2 +6.4 30 +25  1007.4  -2.2  744  273           
15 24.05.19 200 (Ю) 10 км    6/0 средняя 
[Ac lent]
+22.8 +6.1 34 +23  1006.1  -1.5  743  275    +25.5       
18 24.05.19 250 (З) н/о    6/0 средняя 
[Ac lent]
+17.1 +3.2 39 +18  1006.1  -0.3  743  281    +25.5       
21 24.05.19 230 (ЮЗ) н/о    6/0 средняя 
[Ac lent]
+14.8 +2.7 44 +15  1005.2  -1  742  283           
00 25.05.19 270 (З) 10 км    8/0 средняя 
[Ac lent]
+14.2 +4.1 51 +14  1005  -0.2  742  283           
03 25.05.19 290 (З) 10 км    9/0 средняя 
[Ac lent]
+15.4 +7.1 58 +15  1006.7  1.8  743  282           
06 25.05.19 360 (С) 10 км  {ливн. осадки}  10/10 1000 м 
[Sc]
+11.9 +5 63 +11  1009.4  2.4  745  287  +14.2         
09 25.05.19 360 (С) 10 км    4/4 1000 м 
[Cu med, cong]
+14.6 +5.3 54 +14    1.6  746  285           
12 25.05.19 360 (С) 10 км    ясно 
+16.8 +5.9 49 +17  1012.7  1.9  748  283           
15 25.05.19 360 (С) 10 км    ясно 
+15 +5.3 52 +15  1014.2  1.2  749  285    +17  0.0     
18 25.05.19 020 (С) н/о    ясно 
+10.7 +2.3 56 +11  1016.2  1.8  750  290    +17  0.0     
21 25.05.19 020 (С) н/о    ясно 
+7.1 -0.5 58 +8  1017.8  1.4  751  295           
00 26.05.19 020 (С) 10 км    ясно 
+4.4 -2 63 +5  1019.7  1.7  752  298           
03 26.05.19 020 (С) 10 км    ясно 
+10 +1.3 55 +11  1022.2  2.8  754  293           
06 26.05.19 110 (В) 10 км    ясно 
+15.2 +2.7 43 +17  1024.2  2.3  756  288  +4.4         
09 26.05.19 070 (В) 10 км    ясно 
+17.5 +3 38 +18  1024.8  0.7  757  286           
12 26.05.19 050 (СВ) 10 км    ясно 
+19.6 +3.6 35 +21  1024.3  -0.4  756  284           
15 26.05.19 050 (СВ) 10 км    ясно 
+18 +3.2 37 +19  1024.1  -0.3  756  285    +19.9       
18 26.05.19 020 (С) н/о    ясно 
+12.8 +1.1 45 +14  1024.2  -0.2  756  291    +19.9       
21 26.05.19 020 (С) н/о    ясно 
+10.1 +0.2 50 +10  1025.6  1.2  757  294           
00 27.05.19 020 (С) 10 км    ясно 
+7.4 -0.7 56 +7  1024.3  -1.4  756  297           
03 27.05.19 070 (В) 10 км    ясно 
+12.8 +1.9 47 +14  1025.6  1.6  757  291           
06 27.05.19 140 (ЮВ) 10 км    8/0 верхняя 
[Ci]
+20.9 +4 33 +21  1024.4  -0.8  756  282  +7.4         
09 27.05.19 090 (В) 10 км    8/0 верхняя 
[Ci]
+23.3 +4.3 29 +23  1022.3  -1.8  755  280           
Время (UTC), дата Ветер
(°,м/с) 
Видим.   Явления Облачность Т
(°С)
Тd
(°С)
f(%) Тe
(°С)
Pmin
(гПа)
dP
(гПа)
Po
(мм)
O2
(г/м3)
Тmin Tmax R s Состояние
почвы

Для получения пояснительной информации подведите курсор к названию столбца.

ПОГОДА Торгай - архив

Всё, что Вы хотите узнать о погоде Торгай - удобно и подробно!

Выберите нужную дату (начиная с 1 января 2018* года) и нажмите кнопку "Найти".
Будут отображены архивные сводки погоды по пункту Торгай, начиная с указанной даты.


Отображать данные в формате CSV (для использования в таблицах Excel)


Внимание! Наш архив погоды предназначен исключительно для личного некоммерческого использования в познавательных целях. Если Вам необходимы официальные справки о состоянии погоды (для производственных, юридических, коммерческих и т.п. целей), обращайтесь в органы Росгидромета.

*Примечание: данная дата относится к архиву по метеостанциям СССР (Россия, СНГ, Балтия).
Архив по метеостанциям Зарубежной Европы и Азии (кроме Китая) хранится 10 дней, по другим регионам земного шара (Китай, Африка, Америка, Австралия, Океания) - 1 день.

Торгай - район местоположения метеостанции


Название, широта, долгота, высота метеостанции:
Торгай 49.7°ш. 63.5°д. 123 м над ур. моря [Казахстан]

Дополнительная информация

В oтличие oт бoльшинства пoгoдных сайтoв мы публикуем пoдрoбную метеoинфoрмацию в детальнoм прoфессиoнальнoм фoрмате.

Характеристики температуры и влажнoсти вoздуха измеряются на высoте 2 м в тени вдали oт зданий и деревьев.
Скoрoсть ветра измеряется на высoте 10 м (на урoвне рoста челoвека скoрoсть ветра ниже в 1.5-2 раза). Если метеoстанция нахoдится в гoрoде или в лесу, тo скoрoсть ветра занижена на 2-4 м/с пo сравнению с oткрытым местoм. Скoрoсть ветра над акватoриями крупных рек и oзёр, а также на вершинах хoлмoв на 2-5 м/с выше, чем в oбычных услoвиях.
Атмoсфернoе давление в разных тoчках местнoсти мoжет значительнo oтличаться oт давления на метеoстанции, в зависимoсти oт услoвий рельефа (при пoдъёме на 10 м давление пoнижается примернo на 1 мм рт.ст.).